Tracking 23757 objects as of 26-Oct-2021
HD Live streaming from Space Station
objects crossing your sky now

IRIDIUM 33 DEB

Track IRIDIUM 33 DEB now!
10-day predictions


NORAD ID: 34651
Int'l Code: 1997-051KC
Perigee: 750.4 km
Apogee: 1,030.8 km
Inclination: 86.3 °
Period: 102.6 minutes
Semi major axis: 7261 km
RCS: 0.0077 m2 (small)
Launch date: September 14, 1997
Source: United States (US)
Launch site: TYURATAM MISSILE AND SPACE COMPLEX (TTMTR)

Note: This is SATELLITE DEBRIS
aabbcc
Your satellite tracking list
Your tracking list is empty




NASA's NSSDC Master Catalog

Two Line Element Set (TLE):
1 34651U 97051KC  21298.58009722  .00001827  00000-0  99021-3 0  9998
2 34651  86.2946  47.2509 0193083 262.0738  95.8488 14.02997596646218
Source of the keplerian elements: AFSPC